[[{"header":{"parameterUnit":"m.s-1","parameterCategory":1,"la1":30.2991,"la2":30.254,"lo1":-89.0895,"lo2":-89.0444,"dx":0.0017,"dy":0.0017,"nx":28,"ny":28,"refTime":"2022-11-19T09:00:00:Z","depth":0,"parameterNumber":2,"parameterNumberName":"U-component_of_WINDS"},"data":[0,0,0,0,0,0,0,0,0,0,0,0,0,0,0,0,0,0,0,0,0,0,0,0,0,0,0,0,0,0,0,0,0,0,0,0,0,0,0,0,0,0,0,0,0,0,0,0,0,0,0,0,0,0,0,0,0,0,-2.7504,-2.7504,0,-2.7519,-2.7519,-2.7519,-2.7413,-2.741,-2.7407,-2.7404,-2.7421,-2.7424,-2.7428,0,0,0,0,0,0,0,0,0,0,0,0,0,-2.7383,-2.7386,-2.7504,-2.7504,-2.7504,-2.7519,-2.7519,-2.7519,-2.7413,-2.7409,-2.7406,-2.7402,-2.742,-2.7424,-2.7428,0,0,0,0,0,0,0,0,0,0,0,0,0,-2.7421,-2.7387,-2.7504,-2.7453,-2.7448,-2.7519,-2.7519,-2.7519,-2.7414,-2.7409,-2.7405,-2.7401,-2.7419,-2.7424,-2.7428,-2.7549,0,0,-2.7443,-2.7446,0,0,0,0,0,0,0,0,-2.7419,-2.7425,-2.746,-2.7456,-2.7452,-2.7459,-2.7483,-2.7529,-2.7415,-2.7427,-2.7404,-2.7398,-2.7438,-2.7441,-2.7454,-2.755,-2.7551,-2.7444,-2.7447,-2.7449,-2.745,0,0,0,0,0,0,0,-2.7416,-2.7424,-2.751,-2.7461,-2.7455,-2.7429,-2.743,-2.7491,-2.7458,-2.7426,-2.7418,-2.7421,-2.7434,-2.7449,-2.7453,-2.7551,-2.7444,-2.7448,-2.7451,-2.7453,-2.7747,-2.7751,0,0,0,0,0,0,-2.742,-2.7422,-2.7509,-2.751,-2.7424,-2.7435,-2.7436,-2.7461,-2.7457,-2.7451,-2.7425,-2.7416,-2.7443,-2.7448,-2.7453,-2.7595,-2.7449,-2.7454,-2.7456,-2.7742,-2.7748,-2.7753,0,0,0,0,0,0,-2.7418,-2.7429,-2.7509,-2.7464,-2.7472,-2.7442,-2.7472,-2.7464,-2.7478,-2.7456,-2.745,-2.7446,-2.744,-2.7446,-2.7526,-2.7594,-2.7456,-2.746,-2.7736,-2.7744,-2.775,-2.7878,0,0,0,0,0,0,-2.7415,-2.7429,-2.7474,-2.7466,-2.7475,-2.7581,-2.7476,-2.7468,-2.7487,-2.7476,-2.7474,-2.747,-2.7436,-2.7519,-2.7531,-2.7598,-2.7464,-2.773,-2.774,-2.7748,-2.7868,-2.7889,-2.7907,0,0,0,0,0,-2.7411,-2.751,-2.7477,-2.7488,-2.7531,-2.7585,-2.7591,-2.755,-2.7493,-2.7539,-2.7524,-2.747,-2.7584,-2.7528,-2.754,-2.761,-2.7726,-2.7737,-2.7747,-2.7859,-2.7885,-2.7907,0,0,0,0,0,0,-2.7528,-2.7508,-2.7472,-2.7571,-2.7581,-2.7567,-2.7624,-2.7579,-2.7605,-2.7594,-2.7542,-2.7543,-2.7631,-2.7628,-2.7566,-2.7726,-2.7645,-2.7659,-2.7726,-2.775,-2.7769,-2.7769,-2.7468,0,0,0,0,0,-2.7566,-2.7611,-2.7591,-2.768,-2.7687,-2.7655,-2.7677,-2.7644,-2.7653,-2.7656,-2.7647,-2.7658,-2.7696,-2.7722,-2.7756,-2.7866,-2.7865,-2.792,-2.794,-2.7956,-2.7969,-2.8027,-2.8052,-2.7789,-2.7789,-2.7789,0,0,-2.7643,-2.7638,-2.767,-2.7704,-2.7707,-2.7756,-2.7659,-2.7714,-2.775,-2.7665,-2.774,-2.7733,-2.7741,-2.7837,-2.7878,-2.7837,-2.8041,-2.797,-2.7983,-2.7987,-2.8041,-2.8066,-2.8088,-2.7796,-2.7795,-2.7794,0,0,-2.781,-2.781,-2.7885,-2.789,-2.7897,-2.7874,-2.7892,-2.7886,-2.7878,-2.7952,-2.7889,-2.793,-2.7997,-2.8006,-2.8019,-2.8187,-2.8139,-2.8199,-2.8303,-2.836,-2.8381,-2.8399,-2.846,-2.8482,-2.8212,-2.8213,-2.8213,0,-2.7907,-2.7976,-2.7929,-2.7989,-2.8006,-2.793,-2.8005,-2.8013,-2.8031,-2.8044,-2.7997,-2.8079,-2.8079,-2.8175,-2.8216,-2.8229,-2.8248,-2.82,-2.8381,-2.8399,-2.8415,-2.8473,-2.8496,-2.822,-2.8219,-2.8218,-2.8218,0,-2.8095,-2.8144,-2.8204,-2.8222,-2.8245,-2.8313,-2.8276,-2.8305,-2.827,-2.8253,-2.8329,-2.8326,-2.8358,-2.8378,-2.8345,-2.847,-2.8444,-2.839,-2.8307,-2.8449,-2.8502,-2.8523,-2.8231,-2.8228,-2.8226,-2.8224,0,0,-2.8338,-2.8328,-2.8351,-2.8358,-2.8359,-2.8396,-2.846,-2.849,-2.8517,-2.8531,-2.8583,-2.8641,-2.859,-2.8605,-2.8572,-2.8622,-2.8757,-2.8562,-2.8561,-2.8599,-2.8895,-2.8937,-2.8963,-2.8723,-2.8727,-2.873,-2.8894,0,-2.8502,-2.861,-2.8568,-2.868,-2.8725,-2.8653,-2.8708,-2.8714,-2.87,-2.8736,-2.8719,-2.8761,-2.8691,-2.87,-2.8746,-2.8731,-2.8816,-2.8718,-2.8773,-2.8775,-2.8775,-2.899,-2.9035,-2.919,-2.8915,-2.8918,-2.8921,0,-2.8708,-2.873,-2.8846,-2.8838,-2.8855,-2.8906,-2.893,-2.8965,-2.8971,-2.8956,-2.8973,-2.8928,-2.899,-2.8906,-2.8991,-2.8925,-2.8945,-2.894,-2.8945,-2.895,-2.8858,-2.9003,-2.9238,-2.9262,-2.8953,-2.895,-2.8948,0,-2.8875,-2.8933,-2.901,-2.9018,-2.9011,-2.9048,-2.9047,-2.9048,-2.9069,-2.909,-2.9103,-2.9131,-2.9147,-2.917,-2.9134,-2.9076,-2.9224,-2.9137,-2.9215,-2.9216,-2.9251,-2.925,-2.9495,-2.9261,-2.9261,-2.9261,-2.926,0,-2.9063,-2.9137,-2.9085,-2.9133,-2.9213,-2.9164,-2.9245,-2.9236,-2.9238,-2.9282,-2.9221,-2.9264,-2.9213,-2.9252,-2.9224,-2.9299,-2.9306,-2.9296,-2.9289,-2.9303,-2.9304,-2.9316,-2.9305,-2.9267,-2.9265,-2.9264,-2.9263,0,-2.9265,-2.9233,-2.9312,-2.9298,-2.9296,-2.9356,-2.9344,-2.9387,-2.9367,-2.9424,-2.9435,-2.9404,-2.9446,-2.9412,-2.9452,-2.9434,-2.9533,-2.9509,-2.9531,-2.9525,-2.9605,-2.9599,-2.9868,-2.9901,-2.9645,-2.9648,-2.965,0,-2.9388,-2.9443,-2.9435,-2.946,-2.9462,-2.9503,-2.9524,-2.9478,-2.9502,-2.9512,-2.9554,-2.959,-2.9617,-2.9687,-2.9669,-2.9699,-2.9676,-2.9768,-2.9681,-2.9694,-2.9679,-2.9677,-2.9683,-2.9787,-2.979,-2.9793,-2.9795,0,-2.961,-2.9591,-2.9623,-2.965,-2.9675,-2.9694,-2.9708,-2.9732,-2.9684,-2.9714,-2.9756,-2.9777,-2.9818,-2.9855,-2.9879,-2.9878,-2.9829,-2.9822,-2.9842,-2.9858,-2.9869,-2.9865,-2.9581,-2.9816,-2.9814,-2.9813,-2.9811,-2.9811,-2.9777,-2.9823,-2.9824,-2.9861,-2.9866,-2.988,-2.992,-2.9904,-2.9938,-2.9968,-2.9938,-2.9989,-2.9992,-3.0019,-3.0024,-3.0063,-3.0025,-3.0053,-3.0061,-3.0069,-3.0081,-2.9861,-3.0067,-3.0066,-3.0065,-3.0065,-3.0064,0,-2.9997,-2.9994,-3.0029,-3.0049,-3.0079,-3.0028,-3.0041,-3.0069,-3.0114,-3.0121,-3.0148,-3.0196,-3.0231,-3.0214,-3.0245,-3.028,-3.0258,-3.0289,-3.0287,-3.0288,-3.0113,-3.0093,-3.0306,-3.0306,-3.0306,-3.0306,-3.0306,-3.0306,-3.0116,-3.019,-3.0171,-3.0247,-3.0243,-3.0292,-3.0303,-3.0316,-3.0321,-3.0377,-3.0405,-3.0394,-3.0391,-3.0421,-3.0451,-3.0445,-3.046,-3.05,-3.0487,-3.0324,-3.03,-3.0278,-3.0259,-3.0504,-3.0504,-3.0659,-3.066,-3.0661]},{"header":{"parameterUnit":"m.s-1","parameterCategory":1,"la1":30.2991,"la2":30.254,"lo1":-89.0895,"lo2":-89.0444,"dx":0.0017,"dy":0.0017,"nx":28,"ny":28,"refTime":"2022-11-19T09:00:00:Z","depth":0,"parameterNumber":3,"parameterNumberName":"V-component_of_WINDS"},"data":[0,0,0,0,0,0,0,0,0,0,0,0,0,0,0,0,0,0,0,0,0,0,0,0,0,0,0,0,0,0,0,0,0,0,0,0,0,0,0,0,0,0,0,0,0,0,0,0,0,0,0,0,0,0,0,0,0,0,-7.7214,-7.7215,0,-7.7294,-7.7295,-7.7296,-7.717,-7.7165,-7.7161,-7.7157,-7.7234,-7.724,-7.7246,0,0,0,0,0,0,0,0,0,0,0,0,0,-7.6945,-7.6951,-7.7214,-7.7215,-7.7216,-7.7294,-7.7295,-7.7296,-7.7171,-7.7165,-7.716,-7.7155,-7.7232,-7.7239,-7.7246,0,0,0,0,0,0,0,0,0,0,0,0,0,-7.7047,-7.6953,-7.7214,-7.7163,-7.7159,-7.7294,-7.7295,-7.7297,-7.7172,-7.7165,-7.7159,-7.7153,-7.7229,-7.7238,-7.7247,-7.7434,0,0,-7.7275,-7.7279,0,0,0,0,0,0,0,0,-7.7042,-7.7057,-7.7169,-7.7167,-7.7163,-7.7215,-7.7228,-7.7342,-7.7173,-7.7167,-7.7157,-7.7149,-7.7233,-7.7241,-7.727,-7.7438,-7.7441,-7.7276,-7.7281,-7.7285,-7.7288,0,0,0,0,0,0,0,-7.7035,-7.7053,-7.7245,-7.7171,-7.7167,-7.7134,-7.7141,-7.7249,-7.7235,-7.7167,-7.7158,-7.7169,-7.7229,-7.7262,-7.7271,-7.7442,-7.7276,-7.7284,-7.7289,-7.7293,-7.7764,-7.7771,0,0,0,0,0,0,-7.7035,-7.7048,-7.7243,-7.7248,-7.7085,-7.7144,-7.7152,-7.7205,-7.7234,-7.7232,-7.7175,-7.7163,-7.7249,-7.7261,-7.7273,-7.7493,-7.7285,-7.7294,-7.7299,-7.7757,-7.7766,-7.7774,0,0,0,0,0,0,-7.7029,-7.7053,-7.724,-7.7146,-7.7167,-7.7155,-7.7216,-7.721,-7.7242,-7.724,-7.7236,-7.7211,-7.7245,-7.726,-7.7395,-7.7493,-7.7298,-7.7306,-7.7749,-7.776,-7.777,-7.7934,0,0,0,0,0,0,-7.7022,-7.7052,-7.7125,-7.7148,-7.7172,-7.7362,-7.7222,-7.7216,-7.7259,-7.7244,-7.7273,-7.7271,-7.7241,-7.7382,-7.7404,-7.7503,-7.7313,-7.774,-7.7754,-7.7766,-7.792,-7.7949,-7.7974,0,0,0,0,0,-7.7013,-7.7167,-7.7129,-7.7153,-7.7263,-7.7368,-7.7382,-7.7346,-7.7267,-7.7339,-7.7337,-7.727,-7.7479,-7.7397,-7.7421,-7.7523,-7.7734,-7.775,-7.7765,-7.7907,-7.7943,-7.7973,0,0,0,0,0,0,-7.7153,-7.7169,-7.7127,-7.7294,-7.7331,-7.7347,-7.7436,-7.7385,-7.7443,-7.7427,-7.7378,-7.7385,-7.753,-7.754,-7.7448,-7.7705,-7.7593,-7.7615,-7.7693,-7.7727,-7.7753,-7.7747,-7.7321,0,0,0,0,0,-7.7204,-7.729,-7.7298,-7.7444,-7.7465,-7.7448,-7.7492,-7.7461,-7.7497,-7.7512,-7.752,-7.7555,-7.7629,-7.7678,-7.7746,-7.792,-7.7924,-7.8003,-7.803,-7.8052,-7.8071,-7.8162,-7.8197,-7.7826,-7.7825,-7.7825,0,0,-7.7308,-7.7328,-7.7385,-7.7473,-7.7498,-7.7586,-7.7462,-7.7561,-7.7625,-7.7526,-7.7654,-7.7661,-7.7697,-7.7853,-7.7921,-7.7865,-7.8174,-7.8072,-7.809,-7.8096,-7.8182,-7.8217,-7.8248,-7.7836,-7.7834,-7.7833,0,0,-7.7544,-7.7568,-7.7692,-7.772,-7.776,-7.7748,-7.7778,-7.7802,-7.7804,-7.7931,-7.7859,-7.7933,-7.8062,-7.809,-7.8121,-7.8368,-7.8308,-7.8391,-7.8532,-7.8622,-7.8651,-7.8677,-7.8763,-7.8795,-7.841,-7.841,-7.8411,0,-7.7668,-7.7801,-7.7761,-7.7866,-7.7906,-7.7822,-7.7945,-7.7974,-7.8034,-7.8062,-7.7999,-7.8158,-7.8176,-7.8336,-7.8397,-7.8425,-7.8456,-7.8387,-7.865,-7.8676,-7.8699,-7.8781,-7.8814,-7.842,-7.8419,-7.8418,-7.8417,0,-7.7951,-7.8044,-7.8139,-7.8201,-7.8251,-7.8365,-7.834,-7.8396,-7.836,-7.8354,-7.8484,-7.8503,-7.8573,-7.8608,-7.8574,-7.8764,-7.8728,-7.8659,-7.8545,-7.8745,-7.8821,-7.8852,-7.8434,-7.8431,-7.8428,-7.8425,0,0,-7.8277,-7.8316,-7.8351,-7.8378,-7.8416,-7.8486,-7.8595,-7.8665,-7.8713,-7.8756,-7.8845,-7.8955,-7.8892,-7.8927,-7.8895,-7.8974,-7.9167,-7.8895,-7.8895,-7.8944,-7.9375,-7.9426,-7.9463,-7.9127,-7.9133,-7.9138,-7.9371,0,-7.8511,-7.8702,-7.8669,-7.8852,-7.8936,-7.8858,-7.8952,-7.8984,-7.8981,-7.905,-7.9045,-7.9124,-7.9035,-7.9055,-7.913,-7.9128,-7.9252,-7.911,-7.9207,-7.9211,-7.92,-7.9503,-7.9558,-7.9777,-7.9401,-7.9406,-7.941,0,-7.881,-7.8867,-7.906,-7.9084,-7.9118,-7.9204,-7.9264,-7.9333,-7.9367,-7.9358,-7.9399,-7.9352,-7.9458,-7.9344,-7.9488,-7.9392,-7.943,-7.9434,-7.9442,-7.9449,-7.9322,-7.9517,-7.9847,-7.9879,-7.9456,-7.9452,-7.9449,0,-7.9027,-7.9152,-7.9283,-7.9308,-7.934,-7.9402,-7.9418,-7.9446,-7.949,-7.9542,-7.957,-7.9633,-7.9668,-7.9717,-7.9688,-7.9608,-7.9837,-7.9721,-7.9831,-7.9832,-7.9882,-7.9879,-8.0221,-7.9908,-7.9908,-7.9907,-7.9907,0,-7.9292,-7.9412,-7.9381,-7.9462,-7.9594,-7.9554,-7.9685,-7.9691,-7.9717,-7.9795,-7.973,-7.9805,-7.9762,-7.9833,-7.981,-7.9932,-7.9948,-7.9943,-7.9936,-7.9949,-7.9949,-7.9972,-7.9956,-7.9916,-7.9914,-7.9912,-7.9911,0,-7.9557,-7.9541,-7.9678,-7.9698,-7.9705,-7.9802,-7.9817,-7.9891,-7.9883,-7.9983,-8.0004,-7.9991,-8.007,-8.0046,-8.0132,-8.0117,-8.0271,-8.0244,-8.026,-8.0253,-8.0365,-8.0354,-8.0733,-8.078,-8.0438,-8.0441,-8.0444,0,-7.9726,-7.9817,-7.9847,-7.9896,-7.9917,-7.9997,-8.0042,-8.0005,-8.0054,-8.01,-8.0168,-8.0243,-8.03,-8.0431,-8.0428,-8.0493,-8.0466,-8.0594,-8.0475,-8.0485,-8.0467,-8.0461,-8.047,-8.0618,-8.0622,-8.0625,-8.0628,0,-8.0028,-8.0016,-8.0084,-8.015,-8.0206,-8.0255,-8.0298,-8.0342,-8.0308,-8.0366,-8.0448,-8.0493,-8.0581,-8.0655,-8.0714,-8.0727,-8.0672,-8.0665,-8.0694,-8.0708,-8.0713,-8.0711,-8.0324,-8.0656,-8.0654,-8.0651,-8.065,-8.0649,-8.025,-8.0327,-8.036,-8.0438,-8.0467,-8.0509,-8.0579,-8.058,-8.0649,-8.0719,-8.0693,-8.0786,-8.0816,-8.089,-8.0911,-8.0982,-8.0933,-8.0975,-8.0985,-8.0996,-8.101,-8.0703,-8.0993,-8.0992,-8.0991,-8.0991,-8.099,0,-8.0548,-8.0565,-8.0637,-8.0701,-8.0762,-8.0706,-8.0751,-8.0805,-8.0889,-8.0923,-8.0981,-8.1074,-8.1146,-8.1148,-8.1214,-8.1271,-8.1247,-8.1289,-8.1284,-8.1288,-8.1051,-8.1019,-8.1307,-8.1307,-8.1307,-8.1307,-8.1307,-8.1307,-8.071,-8.0837,-8.0829,-8.0969,-8.0984,-8.1078,-8.1108,-8.1145,-8.1172,-8.128,-8.134,-8.1341,-8.1362,-8.1429,-8.1491,-8.149,-8.1517,-8.1569,-8.1558,-8.1336,-8.1305,-8.1275,-8.1244,-8.1575,-8.1575,-8.1788,-8.179,-8.1792]}]]